[Iaude] MPEC E15: 2024 ED [a=1.24,e=0.19,i=33.1,H=24.8]

mpec at cfa.harvard.edu mpec at cfa.harvard.edu
Sat Mar 2 15:27:49 EST 2024


M.P.E.C. 2024-E15                                 Issued 2024 March 2, 20:26 UT

     The Minor Planet Electronic Circulars contain information on unusual
         minor planets, routine data on comets and natural satellites,
         and occasional editorial announcements.  They are published
    on behalf of Division F of the International Astronomical Union by the
          Minor Planet Center, Smithsonian Astrophysical Observatory,
                          Cambridge, MA 02138, U.S.A.
			  
             Prepared using the Tamkin Foundation Computer Network

                              MPC at CFA.HARVARD.EDU
            URL https://www.minorplanetcenter.net/    ISSN 1523-6714

                                    2024 ED                                     


Observations:
     K24E00D  C2024 03 01.52799512 20 33.805+43 10 42.73         18.54GVEE015F52
     K24E00D  C2024 03 01.56256712 18 47.771+42 52 25.02         18.70GVEE015F51
     K24E00D  C2024 03 01.57556112 18 07.879+42 45 24.61         18.75GVEE015F51
     K24E00D  C2024 03 01.58820412 17 29.057+42 38 31.69         18.76GVEE015F51
     K24E00D*1C2024 03 02.35766011 38 02.011+34 00 07.16         17.96GVEE015703
     K24E00D 1C2024 03 02.35994211 37 54.304+33 58 14.05         18.28GVEE015703
     K24E00D 1C2024 03 02.36225711 37 46.636+33 56 21.16         18.24GVEE015703
     K24E00D 1C2024 03 02.36458711 37 38.762+33 54 24.77         18.43GVEE015703
     K24E00D mC2024 03 02.40150111 35 35.200+33 23 35.27         18.41GVEE015I52
     K24E00D mC2024 03 02.40167011 35 34.624+33 23 26.63         18.18GVEE015I52
     K24E00D mC2024 03 02.40184311 35 34.044+33 23 17.95         18.07GVEE015I52
     K24E00D mC2024 03 02.40201311 35 33.475+33 23 09.24         18.35GVEE015I52
     K24E00D KC2024 03 02.48179211 31 41.66 +32 13 31.3          18.1 GVEE015900
     K24E00D KC2024 03 02.48706111 31 24.32 +32 08 58.7          18.3 GVEE015900
     K24E00D KC2024 03 02.49233011 31 06.92 +32 04 25.9          17.5 GVEE015900
     K24E00D  C2024 03 02.54369711 27 51.753+31 20 58.69         17.75GVEE015F52
     K24E00D  C2024 03 02.56536911 26 38.533+31 01 13.17         17.89GVEE015F52
     K24E00D  C2024 03 02.57730111 25 58.302+30 50 14.31         17.86GVEE015F52
     K24E00D  C2024 03 02.57924611 25 51.771+30 48 26.87         18.03GVEE015F52
     K24E00D KC2024 03 02.81249 11 13 41.609+27 01 36.48         17.2 VqEE015L47
     K24E00D KC2024 03 02.81664 11 13 27.701+26 57 26.21         18.2 VqEE015L47
     K24E00D KC2024 03 02.81873 11 13 20.870+26 55 21.76         18.2 VqEE015L47

Observer details:
703 Catalina Sky Survey.  Observer J. B. Fazekas.  Measurers T. Beuden, V. F.
    Carvajal, D. Fay, J. B. Fazekas, D. C. Fuls, A. R. Gibbs, A. D. Grauer, H.
    Groeller, J. K. Hogan, R. A. Kowalski, S. M. Larson, G. J. Leonard, D.
    Rankin, R. L. Seaman, F. C. Shelly, K. W. Wierzchos.  0.68-m Schmidt + 10K
    CCD.
900 Moriyama.  Observer Y. Ikari.  0.26-m f/7.0 reflector + CMO.
F51 Pan-STARRS 1, Haleakala.  Observers J. Herman, T. Lowe, P. Minguez, A.
    Schultz, I. Smith.  Measurers K. Chambers, T. de Boer, J. Fairlamb, H.
    Gao, M. Huber, C.-C. Lin, E. Magnier, Y. Ramanjooloo, R. Wainscoat, R.
    Weryk.  1.8-m Ritchey-Chretien + CCD.
F52 Pan-STARRS 2, Haleakala.  Observers J. Herman, T. Lowe, P. Minguez, A.
    Schultz, I. Smith.  Measurers K. Chambers, T. de Boer, J. Fairlamb, H.
    Gao, M. Huber, C.-C. Lin, E. Magnier, Y. Ramanjooloo, R. Wainscoat, R.
    Weryk.  1.8-m Ritchey-Chretien + CCD.
I52 Steward Observatory, Mt. Lemmon Station.  Observers T. Beuden, R. A.
    Kowalski.  Measurers T. Beuden, V. F. Carvajal, D. Fay, J. B. Fazekas, D.
    C. Fuls, A. R. Gibbs, A. D. Grauer, H. Groeller, J. K. Hogan, R. A.
    Kowalski, S. M. Larson, G. J. Leonard, D. Rankin, R. L. Seaman, F. C.
    Shelly, K. W. Wierzchos.  1.0-m prime focus + CCD.
L47 Osservatorio Astronomico, Piobbico.  Observers A. Teseo, A. Annamelia.
    Measurer A. Teseo.  0.2-m f/6.3 Schmidt-Cassegrain + CCD.

Orbital elements:
2024 ED                                                  Earth MOID = 0.0238 AU
Epoch 2024 Mar. 31.0 TT = JDT 2460400.5                 MPC                     
M  10.49257              (2000.0)            P               Q                  
n   0.71058218     Peri.  193.20427     -0.98706956     -0.01911887             
a   1.2437311      Node   343.05916     +0.14196284     -0.56531059             
e   0.1871830      Incl.   33.10533     -0.07443274     -0.82465654             
P   1.39           H   24.86          G   0.15           U   7                  
Residuals in seconds of arc
240301 F52  0.0   0.0     240302 I52  0.1+  0.3+    240302 F52  0.1-  0.1-
240301 F51  0.1-  0.1-    240302 I52  0.0   0.2+    240302 F52  0.1-  0.3-
240301 F51  0.0   0.1-    240302 I52  0.0   0.3+    240302 F52  0.1+  0.1+
240301 F51  0.0   0.0     240302 I52  0.0   0.2+    240302 L47  0.1+  0.7+
240302 703  0.7+  0.2-    240302 900  0.6-  0.5+    240302 L47  0.6-  0.3-
240302 703  0.3-  0.7-    240302 900  0.1-  0.2-    240302 L47  1.1+  0.4+
240302 703  0.8+  0.9+    240302 900  0.1-  0.3-
240302 703  0.2-  0.1-    240302 F52  0.1-  0.1-

Ephemeris:
2024 ED                  a,e,i = 1.24, 0.19, 33                  q = 1.0109
Date    TT    R. A. (2000) Decl.     Delta      r    Elong.  Phase     V
2024 02 01    16 15 26.9 +58 40 25   0.3170  1.0602    94.9    67.8    24.9
...
2024 02 16    15 58 17.3 +58 30 08   0.1739  1.0333   100.3    70.1    23.6
...
2024 02 24    15 10 27.7 +57 53 19   0.09426 1.0229   108.3    66.7    22.1
...
2024 03 01    12 45 14.5 +47 04 51   0.03782 1.0171   133.3    45.1    19.5
2024 03 02    11 56 56.1 +38 28 11   0.03050 1.0164   145.5    33.5    18.7
2024 03 03    11 03 12.4 +23 49 06   0.02539 1.0156   162.9    16.6    17.8
...
2024 03 09    07 24 06.1 -45 52 59   0.05849 1.0123   107.8    69.0    21.1
...
2024 03 17    06 13 42.4 -53 54 57   0.1371  1.0109    92.8    79.5    23.3
...
2024 04 01    05 43 29.3 -56 12 25   0.2809  1.0176    85.7    78.3    24.9

A. U. Tomatic                (C) Copyright 2024 MPC           M.P.E.C. 2024-E15





More information about the Iaude mailing list